Regional Weather Roundup
Issued by NWS Kansas City/Pleasant Hill, MO

Home | Current Version | Previous Version | Text Only | Print | Product List | Glossary On
Versions: 1 2 3 4 5 6 7 8 9 10 11 12 13 14 15 16 17 18 19 20 21 22 23 24 25 26 27 28 29 30 31 32 33 34 35 36 37 38 39 40 41 42 43 44 45 46 47 48 49 50
000
ASUS43 KEAX 250004
RWREAX

WEATHER ROUNDUP FOR EASTERN KANSAS AND NORTHWEST MISSOURI
NATIONAL WEATHER SERVICE KANSAS CITY/PLEASANT HILL MO
600 PM CST WED DEC 24 2014

KSZ040-057-103>105-MOZ028-029-037-043-250100-
...KANSAS CITY METROPOLITAN AREA...

CITY           SKY/WX    TMP DP  RH WIND       PRES   REMARKS
K.C. INTL      CLOUDY    34  28  79 W8        29.83R WCI  27
6HR MIN TEMP:  34; 6HR MAX TEMP:  37; 6HR PCP: TRACE;

K.C. DOWNTOWN  CLOUDY    37  29  72 W8        29.84R WCI  31
6HR MIN TEMP:  37; 6HR MAX TEMP:  39;

LEES SUMMIT    CLOUDY    35  29  78 W8        29.83S WCI  29
6HR MIN TEMP:  35; 6HR MAX TEMP:  37;

OLATHE - IXD   CLOUDY    34  29  82 W10       29.85R WCI  26
6HR MIN TEMP:  34; 6HR MAX TEMP:  36;

OLATHE - OJC   CLOUDY    34  29  82 W8        29.83R WCI  27
6HR MIN TEMP:  34; 6HR MAX TEMP:  36;

LAWRENCE       CLOUDY    35  28  75 W9        29.86R WCI  28

$$

MOZ001>008-011>017-020>025-030>033-038>040-044>046-053-054-250100-
...NORTHERN AND CENTRAL MISSOURI...

CITY           SKY/WX    TMP DP  RH WIND       PRES   REMARKS
ST. JOSEPH     CLOUDY    34  29  82 W9        29.83R WCI  27
6HR MIN TEMP:  34; 6HR MAX TEMP:  37;

MOSBY          CLOUDY    36  30  80 W7        29.84R WCI  30
WARRENSBURG    CLOUDY    36  32  87 W8        29.84R WCI  29
WHITEMAN AFB   CLOUDY    37  32  81 W8        29.82R WCI  31
CLINTON        CLOUDY    37  32  81 W9        29.86R WCI  31
SEDALIA        CLOUDY    37  32  82 W9        29.83R WCI  30
6HR MIN TEMP:  37; 6HR MAX TEMP:  38; 6HR PCP:  0.01;

WARSAW         NOT AVBL
MARSHALL       MOCLDY    39  36  87 W8        29.82R WCI  34
CHILLICOTHE      N/A     37  30  75 NW7       29.82R WCI  32
6HR MIN TEMP:  36; 6HR MAX TEMP:  38;

KIRKSVILLE     LGT SNOW  34  33  96 W9        29.77R FOG     WCI  27
6HR MIN TEMP:  34; 6HR MAX TEMP:  37; 6HR PCP:  0.01;


$$

MOZ041-047>049-056>058-063>065-088>090-097-250100-
...EASTERN AND SOUTHERN MISSOURI...

CITY           SKY/WX    TMP DP  RH WIND       PRES   REMARKS
ST. LOUIS INTL CLOUDY    39  33  79 W15       29.76R WCI  31
6HR MIN TEMP:  38; 6HR MAX TEMP:  40; 6HR PCP:  0.01;

SPIRIT OF STL  CLOUDY    38  33  82 W8        29.77R WCI  32
COLUMBIA       CLOUDY    37  33  85 W14       29.79R WCI  28
JEFFERSON CITY CLOUDY    38  33  82 W12       29.82R WCI  30
HANNIBAL       CLOUDY    37  32  81 W13G23    29.75R WCI  29
ROLLA          CLOUDY    35  32  88 W12       29.79R WCI  27
LEBANON        CLOUDY    36  32  87 W13       29.84R WCI  27
OSAGE BEACH    CLOUDY    37  30  75 W7        29.83R WCI  32
SPRINGFIELD    CLOUDY    37  31  78 W15       29.86R WCI  28
BRANSON        CLOUDY    37  32  81 W10       29.88R WCI  30
NEVADA         CLOUDY    36  30  80 W10       29.89S WCI  28
JOPLIN         CLOUDY    36  30  79 W10       29.91R WCI  28
WEST PLAINS    CLOUDY    38  30  73 W10G17    29.84R WCI  31

$$

IAZ060-094-KSZ022-034>040-054-083-096-NEZ052-066-093-250100-
...KANSAS...SOUTHEAST NEBRASKA AND IOWA...

CITY           SKY/WX    TMP DP  RH WIND       PRES   REMARKS
TOPEKA         CLOUDY    36  30  79 SW9       29.86R WCI  29
6HR MIN TEMP:  36; 6HR MAX TEMP:  37;

MANHATTAN      CLEAR     30  27  88 CALM      29.83S
EMPORIA        PTCLDY    30  27  88 SW6       29.85S WCI  24
CHANUTE        CLOUDY    36  29  75 W7        29.89S WCI  30
WICHITA        PTCLDY    34  23  64 S6        29.85S WCI  29
OMAHA          CLOUDY    30  26  85 SW9       29.78S WCI  22
LINCOLN        CLEAR     27  24  89 S7        29.77S WCI  19
FALLS CITY     CLOUDY    32  27  81 SW9       29.81S WCI  24
LAMONI         CLOUDY    32  29  88 W16       29.76S WCI  21
DES MOINES     FLURRIES  34  30  85 W10       29.74R WCI  26

$$



USA.gov is the U.S. government's official web portal to all federal, state and local government web resources and services.